Lid_Strength_Index
3 4 5 6 5 5 6 9 15 7 6 12 12 15 13 11 11 9 12 9 10 11 12 13 12 12 12 11 10 12 10 11 14 13 11 10 9 10 11 14 17 14 15 15
2 3 4 3 6 6 6 11 15 10 7 17 16 12 12 11 11 11 12 11 10 12 12 15 13 14 13 12 11 11 10 11 15 15 13 11 12 11 11 13 13 15 16 14
2 2 3 3 4 5 10 14 17 15 13 11 13 14 14 14 12 11 11 11 10 13 13 12 14 13 14 12 11 11 10 11 12 14 14 11 13 13 12 12 15 15 14 13
1 1 2 2 2 3 10 13 16 12 17 15 12 11 13 15 16 13 12 14 13 14 16 15 15 14 15 13 12 12 11 14 14 14 14 14 13 14 13 13 13 15 14 14
0 1 1 2 2 2 9 15 15 13 12 12 13 12 14 14 15 14 15 14 14 12 16 14 15 14 15 15 13 12 12 16 15 17 15 15 15 14 13 14 14 14 13 14
0 0 1 1 2 2 8 10 10 9 12 14 14 14 13 13 13 15 12 12 15 16 15 12 11 11 12 12 13 13 14 15 17 19 16 17 18 15 14 14 13 14 16 13
0 0 1 1 2 3 6 8 8 12 15 14 14 12 12 13 13 16 14 13 14 14 11 11 12 12 13 13 14 12 14 15 15 18 18 22 16 14 13 14 13 13 13 12
0 0 1 1 3 4 6 7 9 12 15 13 13 13 14 13 14 16 14 13 12 11 12 16 18 18 17 17 15 14 12 15 18 19 19 17 17 16 16 16 15 13 13 11
1 1 2 3 3 4 7 9 7 10 14 15 13 15 14 16 16 16 16 12 11 11 14 16 19 20 17 18 18 15 14 13 15 18 21 22 17 14 13 13 18 12 11 11
1 1 2 3 4 4 6 9 8 10 14 13 12 14 15 14 15 16 15 14 15 12 15 17 18 19 16 19 20 20 18 16 18 18 19 18 14 13 12 18 15 10 10 10
1 1 3 4 5 5 6 10 8 10 13 14 13 12 14 14 14 16 14 15 15 14 16 16 17 17 17 18 16 17 18 18 18 17 19 21 12 12 15 12 10 9 8 7
1 2 4 5 5 6 6 10 9 7 12 14 11 11 11 10 9 11 12 13 13 12 14 14 15 17 16 17 19 14 17 14 16 16 16 12 10 11 9 9 9 7 6 5
3 3 3 5 5 6 7 9 8 9 13 13 12 13 11 9 7 7 12 11 12 12 11 13 14 17 14 17 16 15 14 13 15 15 13 11 10 8 8 7 6 5 4 5
3 4 5 4 5 6 6 9 9 8 10 14 15 10 11 9 8 8 8 10 10 10 10 12 13 15 12 14 14 14 13 12 13 13 11 10 9 7 7 6 4 5 6 6
4 4 4 5 6 6 6 7 7 8 9 14 14 10 10 8 8 9 8 9 10 10 11 12 13 12 12 11 12 13 11 12 13 13 9 9 8 6 5 5 6 6 7 7
5 5 5 6 7 8 6 9 7 7 7 11 16 11 11 9 9 9 9 9 9 9 10 11 10 10 10 13 14 10 9 8 8 10 8 7 6 4 4 6 7 7 7 7
5 6 6 6 6 6 8 10 8 8 7 10 14 14 11 10 9 9 9 8 9 8 9 9 9 9 8 11 13 10 9 8 8 7 7 7 5 5 4 6 6 7 7 7
5 5 6 6 6 6 9 7 8 7 9 9 13 14 11 9 10 10 7 8 7 7 8 8 9 8 9 12 10 9 8 8 7 6 4 4 3 5 6 6 6 7 7 7
5 6 5 5 7 8 8 6 7 5 7 11 10 13 13 7 8 7 7 6 10 7 8 9 8 10 12 10 9 8 7 6 5 4 4 4 6 6 6 6 7 8 8 7
4 4 6 9 6 5 5 6 7 7 7 7 10 8 11 7 8 8 8 7 9 11 9 7 9 10 7 6 5 5 5 4 4 6 6 6 7 7 7 7 7 7 7 8
4 6 7 4 5 5 7 10 10 9 10 8 8 8 9 6 9 9 6 8 8 12 9 10 10 10 7 5 5 4 4 4 4 4 4 5 6 6 7 7 7 7 7 8
4 4 4 4 7 8 11 12 10 9 11 8 8 8 6 7 4 7 7 10 9 13 7 10 12 8 6 5 5 5 4 4 4 4 5 5 6 6 6 7 7 6 7 8
2 5 8 7 9 12 13 15 11 10 8 7 8 9 7 6 5 7 8 11 11 7 10 11 8 6 5 5 5 5 4 4 4 4 4 5 6 5 6 6 6 6 7 7
6 8 12 11 12 11 10 9 8 7 6 6 6 8 8 7 8 8 11 8 8 12 13 12 6 6 5 5 5 5 5 5 5 5 5 5 6 6 6 7 6 7 8 8
7 8 12 11 9 7 7 6 6 5 5 5 7 8 7 9 9 8 9 12 13 11 11 7 5 5 5 5 5 5 5 5 5 5 6 6 6 7 6 6 6 6 8 8
7 8 9 8 8 8 7 6 6 4 5 5 5 8 10 10 9 11 12 12 13 10 7 5 4 5 4 4 4 4 4 4 5 5 5 6 6 7 7 6 7 7 7 8
9 10 7 7 7 7 6 5 5 3 5 8 7 11 13 8 10 11 9 10 8 5 5 4 4 5 5 4 5 6 6 6 6 6 6 6 6 6 7 8 6 7 6 8